Weather Roundup
Issued by NWS Chicago, IL

Home | Current Version | Previous Version | Graphics & Text | Print | Product List | Glossary On
Versions: 1 2 3 4 5 6 7 8 9 10 11 12 13 14 15 16 17 18 19 20 21 22 23 24 25 26 27 28 29 30 31 32 33 34 35 36 37 38 39 40 41 42 43 44 45 46 47 48 49 50
000
NZUS59 KLOT 281909
HRRLOT

CHICAGO AREA WEATHER ROUNDUP
NATIONAL WEATHER SERVICE CHICAGO/ROMEOVILLE IL
200 PM CDT SUN MAY 28 2017

NOTE: "FAIR" INDICATES FEW OR NO CLOUDS BELOW 12,000 FEET WITH NO
SIGNIFICANT WEATHER AND/OR OBSTRUCTIONS TO VISIBILITY.

* THESE STATIONS ARE NOT UNDER NWS QUALITY CONTROL. THEY ALSO MAY NOT
  REPORT WEATHER SUCH AS PRECIPITATION OR FOG.

ILZ005-006-012>014-019>023-282000-
NORTHEAST ILLINOIS

CITY           SKY/WX    TMP DP  RH WIND       PRES   REMARKS
OHARE          PTSUNNY   74  58  57 W16       29.73S
MIDWAY         LGT RAIN  69  59  70 NE10      29.73R
AURORA         SUNNY     74  58  57 W12       29.76F
LANSING*       CLOUDY    70  61  73 CALM      29.73F
JOLIET*        CLOUDY    75  61  61 W8        29.74S
WAUKEGAN       PTSUNNY   70  60  70 SW7       29.72F
DUPAGE AIRPORT MOSUNNY   72  60  66 NW8       29.74F
WHEELING       PTSUNNY   72  61  68 W7        29.74F
KANKAKEE*      MOSUNNY   80  59  47 W10G18    29.74F HX  81
MORRIS*        PTSUNNY   74  59  58 NW10G17   29.75S
LEWIS AIRPORT* CLOUDY    75  64  68 W14       29.74S
NORTHERLY ISL    N/A     59  54  83 N9          N/A
$$

WIZ051-052-058>065-066-070>072-282000-
SOUTHEAST WISCONSIN

CITY           SKY/WX    TMP DP  RH WIND       PRES   REMARKS
MILWAUKEE      MOSUNNY   69  59  70 VRB6      29.72F
KENOSHA*       PTSUNNY   69  60  73 W9        29.73F
RACINE*        CLOUDY    68  60  75 W7        29.75S
WAUKESHA       MOSUNNY   66  55  68 W9        29.75S
WEST BEND      MOSUNNY   68  55  64 SW9       29.71F
$$

INZ001>003-010>013-019-020-282000-
NORTHWEST INDIANA

CITY           SKY/WX    TMP DP  RH WIND       PRES   REMARKS
GARY*          PTSUNNY   66  57  72 NE7       29.74F
MICHIGAN CITY* NOT AVBL
RENSSELAER*    NOT AVBL
VALPARAISO     SUNNY     74  63  68 N9        29.73S
$$

LMZ740>746-282000-
SOUTHERN LAKE MICHIGAN

STATION/POSITION TIME  SKY/WX   TEMP WIND        PRES    VSBY
                                AIR  DIR/SP/G
                 (UTC)          (F)  (DEG/KT/KT) (MB)    (MI)
HARRISON CRIB    1840            56  340/  9/  9   N/A
BURNHAM HARBOR   1900            57   30/  8/ 10   N/A
CALUMET HARBOR   1848            58   60/  6/  8 1006.7F
BURNS HARBOR     1840            59   70/  9/ 10 1007.5F
MICHIGAN CITY    1840            56   20/  6/  7   N/A
$$

ABBREVIATIONS USED IN REMARKS
   TC - TEMPERATURE IN CELSIUS
  WCI - WIND CHILL INDEX
   HX - HEAT INDEX
  VSB - VISIBILITY
$$




USA.gov is the U.S. government's official web portal to all federal, state and local government web resources and services.